Regional Weather Roundup
Issued by NWS Sioux Falls, SD

Home | Current Version | Previous Version | Text Only | Print | Product List | Glossary Off
Versions: 1 2 3 4 5 6 7 8 9 10 11 12 13 14 15 16 17 18 19 20 21 22 23 24 25 26 27 28 29 30 31 32 33 34 35 36 37 38 39 40 41 42 43 44 45 46 47 48 49 50

000
ASUS43 KFSD 092210
RWRFSD

WEATHER ROUNDUP FOR SE SOUTH DAKOTA/SW MINNESOTA/NW IOWA
NATIONAL WEATHER SERVICE SIOUX FALLS SD
400 PM CST TUE FEB 09 2016

NOTE: "FAIR" INDICATES FEW OR NO CLOUDS BELOW 12,000 FEET WITH NO
SIGNIFICANT WEATHER AND OR OBSTRUCTIONS TO VISIBILITY.


SDZ038>040-050-052>070-092300-
SOUTHEAST SOUTH DAKOTA

CITY           SKY/WX    TMP DP  RH WIND       PRES   REMARKS
BROOKINGS      CLOUDY    21  11  65 NW13      30.18R WCI   9
CHAMBERLAIN    CLOUDY    32  14  47 SW6       30.20F WCI  26
HURON          CLOUDY    31  13  47 VRB3      30.21F
MADISON        CLOUDY    23  12  63 NW14      30.19S WCI  11
MITCHELL       CLOUDY    30  13  49 NW7       30.24F WCI  23
SIOUX FALLS    CLOUDY    23  11  60 NW13      30.21S WCI  11
WINNER         MOCLDY    34  14  43 SW13      30.17F WCI  25
YANKTON        PTSUNNY   28  10  47 NW16      30.24S WCI  17
$$

MNZ071-072-080-081-089-090-097-098-092300-
SOUTHWEST MINNESOTA

CITY           SKY/WX    TMP DP  RH WIND       PRES   REMARKS
FAIRMONT       MOSUNNY   18   5  57 NW23G30   30.12R WCI   0
JACKSON        SUNNY     18   7  62 NW22G32   30.15R WCI   0
LUVERNE        CLOUDY    23  12  63 NW15      30.20S WCI  10
MARSHALL       CLOUDY    18   9  68 NW15      30.20R WCI   4
MONTEVIDEO     CLOUDY    18   9  68 N18       30.22S WCI   2
PIPESTONE      CLOUDY    23   5  46 N13G21    30.17S WCI  11
REDWOOD FALLS  MOSUNNY   18   7  62 NW17G24   30.18R WCI   3
TRACY          CLOUDY    19  11  73 NW18G25   30.19R WCI   3
WINDOM         SUNNY     16   9  73 NW25G31   30.15R WCI  -3
WORTHINGTON    CLOUDY    18   7  62 NW21      30.18R WCI   1
$$

IAZ001>003-012>014-020>022-031-032-NEZ013-014-SDZ071-092300-
NORTHWEST IOWA

CITY           SKY/WX    TMP DP  RH WIND       PRES   REMARKS
CHEROKEE       CLOUDY    20  11  67 NW13G18   30.21R WCI   7
DENISON        CLOUDY    19  10  68 NW15G22   30.18S WCI   5
ESTHERVILLE    SUNNY     16   8  71 NW24      30.14R WCI  -2
LE MARS        SUNNY     23  12  63 NW16      30.24R WCI  10
ORANGE CITY    CLOUDY    21  12  68 NW15G21   30.20R WCI   8
SHELDON        CLOUDY    19  12  73 NW20      30.19R WCI   4
SIOUX CITY     SUNNY     25  12  58 NW14      30.24R WCI  13
SPENCER        CLOUDY    18   8  65 NW20G25   30.17R WCI   2
STORM LAKE     CLOUDY    18   9  68 NW21G26   30.17R WCI   1
$$

ABBREVIATIONS USED IN REMARKS
   TC - TEMPERATURE IN CELSIUS
  WCI - WIND CHILL INDEX
   HX - HEAT INDEX
  VSB - VISIBILITY




USA.gov is the U.S. government's official web portal to all federal, state and local government web resources and services.